Location: Maiden
(35.5760°N, 81.2120°W)
Time: 17:14:21
(UTC-04:00)

Cosmos 1606 Rocket - Pass Details

Date: 14 June 2018
Orbit: 604 x 631 km, 82.5° (Epoch: 19 June)

Event Time Altitude Azimuth Distance (km) Brightness Sun altitude
Rises 21:23:52 0° 350° (N) 2,929 7.8 -8.0°
Reaches altitude 10° 21:26:07 10° 347° (NNW) 2,017 7.0 -8.4°
Maximum altitude 21:30:33 67° 266° (W) 686 4.0 -9.1°
Drops below altitude 10° 21:34:57 10° 184° (S) 1,996 5.8 -9.8°
Sets 21:37:10 0° 181° (S) 2,895 6.6 -10.2°
